Zurück zum Katalog

STARLINK-11279

AktivKommunikationVLEO
NORAD 61206·PAYLOAD·🇺🇸 United States

Gestartet Sep 20, 2024 von Vandenberg Space Force Base

Loading…

Nächste Überflüge (nächste 24 Stunden)

TLE

AktuellSource: CelesTrak SupGP

Epoche: Sep 14, 2026, 22:35 UTC

1 61206C 24171G   26257.94145833 -.00077732  00000+0 -64025-3 0  2573
2 61206  53.1571 323.1087 0001127  78.2088 356.1273 15.69750392    12

Verfolge STARLINK-11279 in Echtzeit mit AllMySat

Download on the App Store